UFO 2 (USA 95)

Last updated on Nov. 18, 2019, 4:21 a.m. UTC

1 22787U 93056A   19321.31299289  .00000134  00000-0  00000+0 0  9995
2 22787  11.2159  16.7065 0003317 185.3964 355.4380  1.00277695 94550
UTC
Height (km)
Latitude
Longitude
Inclination
Orbital Period
UTC large
Height (km)
Speed (km/s)
/
Latitude / Longitude
Inclination (degrees)
Orbital Period (minutes)
Azimuth
Elevation
Range (km)
Doppler Factor
iOS Compass Heading
iOS Angle

Next 30 passes for location: Hong Kong

Rise time Rise Azimuth (degrees) Set time Set Azimuth (degrees) Duration Max altitude (degrees)

No matching passes for this satellites